AQI (49)

Current Conditions for Foresthill, CA. Sunny, Dry   
Visibility: 10 miles
Space WX Alerts: ALERT:  Geomagnetic K-index of 6 ( Latest Alert ) - Issue Time: 2021 May 12 1542 UTC

  Summary / Temperature 

Current Temperature
72.6°F
22.6°C
(24/hr Ago)
69.7°F
(Apparent temp)
69.9°F
Comfortable
Heat Index
71.9°F 

72.6°F/ 22.6°C
 --- Virtual Temp: 74.5°F ---

 Temp Rate:

 24/hr Difference:

 Avg Running Temp:

 Todays High:

 Todays Low:

 Y-days High:

 Y-days Low:

 Todays WChill:

 Y-days WChill:

 Evapotranspiration:

+4.1°F/hr 

+2.9°F

66.9°F

72.6°F 9:53am

60.2°F 4:18am

82.9°F 1:50pm

61.1°F 6:48am

57.7°F 6:52am

58.2°F 6:42am

0.033 in

115' Above Ground

 Temperature:

 6'AGL VRS 115'AGL:

 Avg Running Temp:

 Humidity:

 Todays High:

 Todays Low:

 Y-days High:

 Y-days Low:

76.0°F 

+3.4°F

76.0°F

0% 

76.0°F 12:00am

76.0°F 12:00am

81.0°F 6:07pm

72.0°F 12:00am

Temp & Humidity Graphs

  Wind 

Wind Speed

 1.0 mph

Gusting to

 5.0 mph

Wind from ESE

105°  ESE

Light air

 Avg speed:

 Wind Run:

 Peak Gust:

  1.0 mph 

25.0 miles

  18.0 mph 7:16am

  Almanac  

Moon age: 0 days,19 hours,22 minutes,1%

New moon
1%
Illuminated
0 days in cycle

 Moonrise:

 Moonset:

 Sunrise:

 Sunset:

 Solar Noon:

6:29am

9:15pm

5:51am

8:05pm

1:00pm

1min 55s more daylight tomorrow 

  Solar Radiation 

(Current Solar)
  687 W/m2 (90%)
(Todays High)
 687 W/m2@9:51am
Feels like: 83.5°F in the sun

Rain

 Rain Today:

 Rain Rate (/hr):

 Rain last hour:

 Rain Yesterday:

 This Month:

 Season Total:

15 Days Since Last Rain Day

0.00 in

0.000 in

0.00 in

0.00 in

0.00 in

22.73 in

Updated Time

Updated: 5/12/21  9:53am

(Updated  sec ago)

Humidity & Barometer

 Humidity:

 Wetbulb:

 Dew Point:

 Barometer:

31% 

57.4°F 

40.2°F 

29.973 inHg 

 Baro Trend:  Rising Slowly 
Northern Calif
Preparedness
Fire 
Level 

    UV Index  

(Current UV)
3.8  Medium
(Todays High) @ 9:50am
3.8   Medium

National Weather Service Forecast

Today

Today: Sunny
Sunny
Tonight

Tonight: Mostly Clear
Mostly Clear
Thursday

Thursday: Sunny
Sunny
Thursday
Night
Thursday Night: Clear
Clear
Friday

Friday: Sunny
Sunny
Friday
Night
Friday Night: Mostly Clear
Mostly Clear
Hi 83 °F Lo 61 °F Hi 83 °F ↓ Lo 59 °F Hi 79 °F Lo 53 °F

Foresthill Probe 2 Stats  
Foresthill Probe 2: is located on Thomas Street
at 3000 feet. The main Foresthill Weather site
is located on Melody ln at the 2860 foot elevation

Calm
75.0°F
23.9°C
Temp Rate:
+5.3°F
Calm
Gusting to
1.0 mph
(Humidity)
28%
Wind from S
169°  S
Updated: 12/05/21 - 09:53:09
 Todays High: 75.0°F 09:52
 Todays Low: 58.2°F 03:59
 Rain Today: 0.00 in
 Season Total: 23.77 in

Foresthill Wx: Monthly,Yearly, Highs and Lows 

Foresthill  
This Weather Data is coming from the main Foresthill
Weather site located on Melody ln at the 2860 foot
elevation
Not Foresthill Probe 2
Weather Data
Month
  High
Month
  Low
Year
High
Year
Low
Temp 85.0°F
5/5/21
47.4°F
5/7/21
85.0°F
5/5/21
25.3°F
1/26/21
Humidity 77%
5/1/21
15%
5/11/21
100%
1/3/21
9%
3/30/21
Heat Index 82.2°F
5/5/21
50.6°F
5/7/21
82.2°F
5/5/21
31.2°F
1/26/21
Wind Chill 85.0°F
5/5/21
41.6°F
5/7/21
85.0°F
5/5/21
12.5°F
1/26/21
Wind Gust 24 mph
5/7/21
0 mph
5/1/21
50 mph
1/19/21
0 mph
1/1/21
Barometer 30.03 in
5/8/21
29.82 in
5/10/21
30.52 in
2/21/21
29.73 in
4/13/21
ET 0.25 in
5/10/21
0.00 in
5/1/21
0.25 in
5/10/21
0.00 in
1/1/21
Dew Point 49.6°F
5/2/21
21.8°F
5/11/21
51.9°F
1/13/21
3.6°F
2/24/21
Visible Satellite Pacific Satellite US Radar Satellite Imagery Sacramento,CA.  (click to enlarge)
NWS Weather Forecast - Summary
Updated: Wednesday, May 12, 2021 - 3:00am PDT
Isolated Afternoon Mountain Thunderstorms Possible Friday into Sunday
NWS Weather Forecast: Today and Tonight (Updated: Wed, 12-May-2021 1:41am PDT)
Today

Today: Sunny
Sunny

Hi 83 °F
NWS forecast: Sunny, with a high near 83. South southwest wind 5 to 9 mph.
Tonight

Tonight: Mostly Clear
Mostly Clear

Lo 61 °F
NWS forecast: Mostly clear, with a low around 61. South southwest wind 1 to 9 mph.
YR.NO 10 Day Weather forecast
Last update: 05/12/2021 @ 06:12
Next update: 05/12/2021 @ 12:12
Provided by: 22
      Temperature Precipitation Pressure Wind  
Today
05/12/2021
07:00 12:00 55°F   29.93 inHg Light breeze from east-northeast 7 mph
  12:00 18:00 82°F   29.97 inHg Gentle breeze from west-southwest 8 mph
  18:00 00:00 81°F   29.93 inHg Light breeze from west-southwest 6 mph
    (Click to enlarge)
meteogram

    Forecast for next 9 days

      Temperature Precip Pressure Wind  
Thursday
05/13/2021
00:00 06:00 54°F   30.00 inHg Light breeze from east-northeast 5 mph
  06:00 12:00 50°F   29.99 inHg Light breeze from east-northeast 6 mph
  12:00 18:00 82°F   29.98 inHg Light breeze from west-southwest 7 mph
  18:00 00:00 79°F   29.93 inHg Light breeze from southwest 6 mph
      Temperature Precip Pressure Wind  
Friday
05/14/2021
00:00 06:00 54°F   29.94 inHg Light breeze from east-northeast 5 mph
  06:00 12:00 50°F   29.88 inHg Light breeze from east 5 mph
  12:00 18:00 79°F   29.87 inHg Gentle breeze from southwest 9 mph
  17:00 23:00 77°F   29.80 inHg Gentle breeze from southwest 8 mph
  23:00 05:00 59°F   29.80 inHg Light breeze from east 5 mph
      Temperature Precip Pressure Wind  
Saturday
05/15/2021
05:00 11:00 54°F   29.79 inHg Light air from south 3 mph
  11:00 17:00 64°F 0.03 in 29.84 inHg Light breeze from west-southwest 6 mph
  17:00 23:00 64°F < 0.01 in 29.81 inHg Light air from west-northwest 2 mph
  23:00 05:00 55°F   29.81 inHg Light air from east-northeast 2 mph
      Temperature Precip Pressure Wind  
Sunday
05/16/2021
05:00 11:00 50°F   29.80 inHg Light air from east 2 mph
  11:00 17:00 66°F 0.02 in 29.83 inHg Light breeze from west-southwest 5 mph
  17:00 23:00 66°F   29.84 inHg Light air from south 3 mph
  23:00 05:00 57°F   29.89 inHg Light air from east 1 mph
      Temperature Precip Pressure Wind  
Monday
05/17/2021
05:00 11:00 50°F   29.93 inHg Light air from east-southeast 1 mph
  11:00 17:00 68°F   29.95 inHg Light breeze from west-southwest 6 mph
  17:00 23:00 72°F   29.91 inHg Gentle breeze from southwest 8 mph
  23:00 05:00 55°F   29.96 inHg Light breeze from southeast 4 mph
      Temperature Precip Pressure Wind  
Tuesday
05/18/2021
05:00 11:00 50°F   29.97 inHg Light breeze from southeast 4 mph
  11:00 17:00 63°F   30.04 inHg Gentle breeze from southwest 9 mph
  17:00 23:00 66°F   30.01 inHg Light breeze from west 7 mph
  23:00 05:00 50°F   30.04 inHg Light breeze from east-northeast 5 mph
      Temperature Precip Pressure Wind  
Wednesday
05/19/2021
05:00 11:00 41°F   30.00 inHg Light breeze from east-northeast 7 mph
  11:00 17:00 70°F   29.95 inHg Light breeze from west-northwest 7 mph
  17:00 23:00 73°F   29.88 inHg Light breeze from west-northwest 7 mph
  23:00 05:00 55°F   29.92 inHg Light breeze from east 4 mph
      Temperature Precip Pressure Wind  
Thursday
05/20/2021
05:00 11:00 45°F   29.89 inHg Light breeze from east-northeast 5 mph
  11:00 17:00 73°F   29.89 inHg Light breeze from west-southwest 6 mph
  17:00 23:00 77°F   29.85 inHg Light breeze from west 6 mph
  23:00 05:00 57°F   29.86 inHg Light breeze from east 4 mph
      Temperature Precip Pressure Wind  
Friday
05/21/2021
05:00 11:00 48°F   29.84 inHg Light breeze from east 6 mph
How Close Are We To this Month's Temperature Record ?
Updated Wednesday, May 12, 2021- 9:50:01 AM

Current Temperature: 72.6°F

May's High: Temperature Record 94.3°F - Set on Thu, May 28, 2020 - 2:11:43 PM
We are currently 21.7°F Less than this Month's record High

May's Low: Temperature Record 37.2°F - Set on Mon, May 20, 2019 - 5:45:00 AM
We are currently 35.4°F More than this Month's record Low

Weather History For Wednesday, May 12, 2021


On this Day - In Weather History ...
Data courtesy of weatherforyou.com
powered by Cumulus v1.9.3 (1059)
Ambient Weather VWS v14.00
Top Website Map Copyright © 2007 - 2021 Foresthillweather.com Never base important decisions on this or any weather information obtained from the Internet